Home   Weather   Oslo   Past weeks

Flag for Norway Past Weather in Oslo, Norway — Yesterday and Last 2 Weeks

42 °F

Quite cool.

Feels Like: 38 °F
Forecast: 39 / 42 °F
Wind: 6 mph from Northeast

Location: Oslo-Blindern

Current Time: Oct 21, 2016 at 5:05:01 PM

Latest Report: Oct 21, 2016 at 4:00 PM

Visibility: 19 mi

Pressure: 30.34 "Hg

Humidity: 75%

Dew Point: 34 °F

Location of OsloLocation

Past Weather in Oslo — Graph


Oslo Temperature Yesterday

Maximum temperature yesterday: 46 °F (at 5:00 AM)
Minimum temperature yesterday: 42 °F (at 11:00 PM)
Average temperature yesterday: 44 °F

High & Low Weather Summary for the Past Weeks

High58 °F (Oct 7, 4:00 PM)97% (Oct 18, 5:00 AM)30.65 "Hg (Oct 18, 5:00 AM)
Low32 °F (Oct 14, 10:00 AM)34% (Oct 6, 3:00 PM)30.13 "Hg (Oct 18, 5:00 PM)
Average43 °F75%30.46 "Hg
* Reported Oct 6 3:00 PM — Oct 21 3:00 PM, Oslo, Weather by CustomWeather, © 2016

Note: Actual official high and low records may vary slightly from our data, if they occured in-between our weather recording intervals... More about our weather records


Oslo Weather History for the Previous 24 Hours

Scroll right to see more
Time TempWeatherWind HumidityBarometerVisibility
3:00 PM
Fri, Oct 21
42 °FDrizzle. Cloudy.6 mph76%30.35 "Hg19 mi
2:00 PM42 °FLight rain. Overcast.7 mph75%30.36 "Hg31 mi
1:00 PM42 °FQuite cool.8 mph73%30.36 "Hg25 mi
12:00 PM41 °FQuite cool.7 mph72%30.36 "Hg25 mi
11:00 AM41 °FOvercast.7 mph70%30.36 "Hg31 mi
10:00 AM41 °FQuite cool.6 mph72%30.36 "Hg28 mi
9:00 AM41 °FQuite cool.6 mph73%30.36 "Hg28 mi
8:00 AM41 °FOvercast.7 mph73%30.35 "Hg31 mi
2:00 AM42 °FQuite cool.3 mph77%30.37 "Hg31 mi
1:00 AM42 °FQuite cool.5 mph78%30.37 "HgN/A
12:00 AM42 °FQuite cool.5 mph79%30.37 "Hg31 mi
11:00 PM
Thu, Oct 20
42 °FOvercast.5 mph78%30.37 "Hg28 mi
10:00 PM43 °FQuite cool.3 mph79%30.37 "Hg28 mi
9:00 PM43 °FQuite cool.6 mph80%30.36 "Hg31 mi
8:00 PM44 °FLight rain. Overcast.5 mph83%30.35 "Hg19 mi
7:00 PM44 °FQuite cool.6 mph82%30.34 "Hg25 mi
6:00 PM44 °FRain showers. Overcast.6 mph84%30.33 "Hg28 mi
5:00 PM44 °FLight rain. Overcast.6 mph86%30.33 "Hg16 mi
Weather by CustomWeather, © 2016

See weather overviewHow to use our weather pages